www.pogodaiklimat.ru

Погода и климат >> Архив погоды >> Индонезия >> Каимана


ПОГОДА в Каимана

  • Прогноз погоды в Каимана
  • Монитор погоды в Каимана

АРХИВ ПОГОДЫ в Каимана

Время (UTC), дата Ветер
(напр.,м/с)
 
Видим.   Явления Облачность Т
(С)
Тd
(С)
f
(%)
Тe
(С)
Тes
(С)
Комфортность P
(гПа)
Po
(гПа)
Тmin
(С)
Tmax
(С)
R
(мм)
R24
(мм)
S
(см)
09 19.03 штиль 0 10 км 8/4 450 м
[Cu Sc Ac trans Ci sp]
+29.5 +23.4 70 +40 +40 очень
душно
1007.3 1006.4
12 19.03 штиль 0 10 км 8/4 450 м
[Cu Sc Ac trans Ci sp]
+27.8 +24.0 80 +39 +39 очень
душно
1009.9 1009.0 +33.5
15 19.03 штиль 0 10 км 8/5 450 м
[Cu Sc As op Ci fib]
+25.8 +23.8 89 +35 +35 очень
душно
1009.9 1009.0
18 19.03 штиль 0 7000 м 5/1 450 м
[Cu med, cong Ac trans Ci sp]
+24.4 +22.7 90 +32 +32 очень
душно
1008.1 1007.2
21 19.03 штиль 0 7000 м 9/3 450 м
[Cu Sc Ac trans Ci sp]
+24.0 +23.2 95 +32 +32 очень
душно
1009.0 1008.1
00 20.03 С 2 10 км 5/3 480 м
[Cu med, cong Ac trans Ci sp]
+29.6 +25.4 78 +43 +50 опасность
перегрева
1011.2 1010.3 +24.0
03 20.03 штиль 0 10 км 5/3 480 м
[Cu med, cong Ac trans Ci sp]
+33.6 +25.6 63 +48 +66 опасность
перегрева
1008.8 1007.9
06 20.03 З 4 10 км 5/3 480 м
[Cu med, cong Ac trans Ci sp]
+32.9 +24.4 61 +45 +50 опасность
перегрева
1007.0 1006.1
09 20.03 штиль 0 8000 м 5/3 450 м
[Cu med, cong Ac trans Ci sp]
+30.2 +24.6 72 +43 +43 опасность
перегрева
1008.0 1007.1
12 20.03 штиль 0 7000 м 5/3 450 м
[Cu hum Ac trans Ci sp]
+26.5 +24.9 91 +38 +38 очень
душно
1009.6 1008.7 +34.9
15 20.03 С 3 6000 м 6/3 450 м
[Cu med, cong Ac trans Ci sp]
+28.0 +25.1 84 +40 +40 очень
душно
1009.9 1009.0
18 20.03 С 3 6000 м 6/3 450 м
[Cu med, cong Ac trans Ci sp]
+27.6 +24.4 83 +39 +39 очень
душно
1008.5 1007.6
21 20.03 С 4 6000 м 6/3 450 м
[Cu med, cong Ac trans Ci sp]
+27.8 +23.7 78 +38 +38 очень
душно
1009.4 1008.5
00 21.03 СЗ 3 10 км 6/3 450 м
[Cu med, cong Ac trans Ci sp]
+30.3 +24.0 69 +42 +47 опасность
перегрева
1010.8 1009.9 +24.8
03 21.03 С 3 10 км 6/3 450 м
[Cu med, cong Ac trans Ci sp]
+33.0 +23.2 56 +43 +53 опасность
перегрева
1009.0 1008.1
06 21.03 З 4 7000 м осадки на расстоянии 8/4 450 м
[Cu Sc Ac trans Ci sp]
+34.7 +24.0 54 +46 +49 опасность
перегрева
1006.2 1005.3
09 21.03 штиль 0 7000 м 8/4 450 м
[Cu Sc Ac trans Ci sp]
+30.0 +24.4 72 +42 +42 опасность
перегрева
1007.4 1006.5
12 21.03 штиль 0 7000 м зарница 6/3 450 м
[Cb cap Ac trans Ci sp]
+26.6 +24.8 90 +38 +38 очень
душно
1009.4 1008.5 +35.1
15 21.03 С 3 6000 м 8/4 450 м
[Cu Sc Ac trans Ci sp]
+28.4 +25.0 82 +41 +41 опасность
перегрева
1009.5 1008.6
18 21.03 С 3 6000 м 8/4 450 м
[Cu Sc Ac trans Ci sp]
+28.0 +24.6 82 +40 +40 очень
душно
1008.6 1007.7
21 21.03 С 2 7000 м 8/4 450 м
[Cu Sc Ac trans Ci sp]
+27.8 +25.0 85 +40 +40 очень
душно
1009.5 1008.6
00 22.03 С 3 10 км 6/3 450 м
[Cu med, cong Ac trans Ci sp]
+30.4 +25.3 74 +44 +49 опасность
перегрева
1010.6 1009.7 +26.4
03 22.03 С 2 10 км 6/4 450 м
[Cu med, cong Ac trans Ci sp]
+33.0 +24.8 62 +46 +57 опасность
перегрева
1008.3 1007.4
06 22.03 ЮЗ 3 9000 м 8/4 450 м
[Cu Sc Ac trans Ci sp]
+30.8 +24.2 68 +43 +47 опасность
перегрева
1006.8 1005.9
09 22.03 штиль 0 8000 м 8/4 450 м
[Cu Sc Ac trans Ci sp]
+30.0 +23.9 70 +41 +41 опасность
перегрева
1007.3 1006.4
12 22.03 С 3 8000 м 8/4 450 м
[Cu Sc Ac trans Ci sp]
+28.7 +24.7 79 +41 +41 опасность
перегрева
1010.0 1009.1 +34.0
15 22.03 С 3 5000 м 8/4 450 м
[Cu Sc Ac trans Ci sp]
+28.6 +24.8 80 +41 +41 опасность
перегрева
1010.4 1009.5
18 22.03 С 3 5000 м 8/5 450 м
[Cu Sc Ac trans Ci sp]
+28.4 +24.6 80 +40 +40 очень
душно
1008.7 1007.8
21 22.03 С 6 7000 м 9/5 450 м
[Cu Sc Ac trans Ci sp]
+28.1 +24.7 82 +40 +40 очень
душно
1009.9 1009.0
00 23.03 С 5 10 км 5/3 480 м
[Cu med, cong Ac trans Ci sp]
+29.9 +23.6 69 +41 +44 опасность
перегрева
1011.0 1010.1 +28.0
03 23.03 СЗ 2 10 км 6/4 450 м
[Cu Sc Ac trans Ci sp]
+33.6 +26.4 66 +50 +61 опасность
перегрева
1008.9 1008.0
06 23.03 С 4 9000 м 9/5 450 м
[Cu Sc Ac trans Ci sp]
+32.4 +23.9 61 +44 +46 опасность
перегрева
1006.9 1006.0
09 23.03 СЗ 7 6000 м 9/5 450 м
[Cu Sc Ac trans Ci sp]
+29.0 +25.2 80 +42 +42 опасность
перегрева
1007.5 1006.6
12 23.03 С 3 5000 м 9/5 450 м
[Cu Sc Ac trans Ci sp]
+28.4 +25.6 85 +42 +42 опасность
перегрева
1009.5 1008.6 +34.0
15 23.03 СЗ 2 5000 м 9/5 450 м
[Cu Sc Ac trans Ci sp]
+28.2 +25.7 86 +42 +42 опасность
перегрева
1009.3 1008.4
18 23.03 С 2 5000 м 9/5 450 м
[Cu Sc Ac trans Ci sp]
+28.0 +24.9 83 +40 +40 очень
душно
1009.1 1008.2
21 23.03 С 3 6000 м 8/4 450 м
[Cu med, cong Ac trans Ci sp]
+28.0 +24.5 81 +39 +39 очень
душно
1010.2 1009.3
00 24.03 С 2 10 км 6/3 450 м
[Cu med, cong Ac trans Ci sp]
+31.0 +24.6 69 +44 +50 опасность
перегрева
1011.7 1010.8 +26.8
03 24.03 С 2 10 км 6/3 450 м
[Cu med, cong Ac trans Ci sp]
+33.9 +25.6 62 +49 +61 опасность
перегрева
1009.4 1008.5
06 24.03 С 2 8000 м осадки на расстоянии 9/5 450 м
[Cb cap Ac trans Ci sp]
+29.5 +25.5 79 +43 +47 опасность
перегрева
1008.0 1007.1
09 24.03 С 2 8000 м 8/4 450 м
[Cu Sc Ac trans Ci sp]
+29.9 +23.6 69 +41 +41 опасность
перегрева
1008.5 1007.6
12 24.03 СЗ 2 5000 м осадки на расстоянии 9/5 450 м
[Cu Sc Ac trans Ci sp]
+29.1 +24.1 74 +40 +40 очень
душно
1011.1 1010.2 +35.1
15 24.03 С 3 5000 м осадки на расстоянии 9/5 450 м
[Cu Sc Ac trans Ci sp]
+25.8 +25.3 97 +37 +37 очень
душно
1011.4 1010.5
18 24.03 штиль 0 5000 м 9/4 450 м
[Cu Sc Ac trans Ci sp]
+26.0 +24.2 90 +36 +36 очень
душно
1010.3 1009.4
21 24.03 штиль 0 6000 м 9/5 450 м
[Cu Sc Ac trans Ci sp]
+25.3 +23.7 91 +34 +34 очень
душно
1010.0 1009.1
00 25.03 С 2 9000 м 8/4 450 м
[Cu Sc Ac trans Ci sp]
+30.8 +25.0 71 +44 +49 опасность
перегрева
1011.8 1010.9 +25.0
03 25.03 З 3 10 км 6/3 450 м
[Cu med, cong Ac trans Ci sp]
+32.8 +24.9 63 +46 +57 опасность
перегрева
1011.0 1010.1
06 25.03 З 2 10 км 8/4 450 м
[Cu Sc Ac trans Ci sp]
+33.4 +24.6 60 +46 +51 опасность
перегрева
1008.7 1007.8
09 25.03 штиль 0 8000 м 8/4 450 м
[Cu Sc Ac trans Ci sp]
+29.6 +24.2 73 +41 +41 опасность
перегрева
1009.8 1008.9
12 25.03 штиль 0 5000 м 8/4 450 м
[Cu Sc Ac trans Ci sp]
+28.8 +23.9 75 +40 +40 очень
душно
1012.5 1011.6 +34.6
15 25.03 штиль 0 5000 м 8/4 450 м
[Cu Sc Ac trans Ci sp]
+28.2 +24.2 79 +39 +39 очень
душно
1011.7 1010.8
18 25.03 штиль 0 5000 м 8/4 450 м
[Cu Sc Ac trans Ci sp]
+26.3 +23.8 86 +36 +36 очень
душно
1011.4 1010.5
21 25.03 штиль 0 6000 м 8/4 450 м
[Cu Sc Ac trans Ci sp]
+25.5 +23.6 89 +35 +35 очень
душно
1011.7 1010.8
00 26.03 СЗ 3 9000 м 8/4 450 м
[Cu Sc Ac trans Ci sp]
+29.8 +24.9 75 +43 +47 опасность
перегрева
1012.8 1011.9 +25.5
03 26.03 З 3 10 км 6/4 450 м
[Cu Sc Ac trans Ci sp]
+33.1 +24.6 61 +46 +56 опасность
перегрева
1010.8 1009.9
06 26.03 З 6 10 км 8/4 450 м
[Cu Sc Ac trans Ci sp]
+32.3 +25.9 69 +48 +50 опасность
перегрева
1008.6 1007.7

 

Местоположение метеостанции Каимана (Индонезия): широта -3.67 долгота 133.75 высота над уровнем моря 3 м.

В архиве по умолчанию представлена погода в Каимана за последнюю неделю. Архивные данные за месяц целиком и за предыдущие месяцы, начиная с января 2011 года, Вы можете получить, выбрав интересующий диапазон дат из раскрывающегося списка и нажав кнопку "Ввод!".


*Определитесь, кто Вы:
робот инопланетянин человек

Внимание! Время в таблицах - всемирное. Для получения местного времени необходимо прибавить поправку, которая равна 9 ч.

Смотрите также архив погоды в соседних городах и на ближайших метеорологических станциях:

Погода в Факфаке (Индонезия) (185 км)
Погода в Набире (Индонезия) (198 км)
Погода в Туале (Индонезия) (250 км)
Погода в Энаротали (Индонезия) (292 км)
Погода в Маноквари (Индонезия) (312 км)
Погода в Гесере (Индонезия) (324 км)
Погода в Серуи (Индонезия) (341 км)
Погода в Биаке (Индонезия) (381 км)
Погода в Аэропорту Соронг-Джефман (Индонезия) (423 км)
Погода в Коконао (Индонезия) (436 км)

Пояснения к столбцам:

Ветер - указаны скорость ветра в м/с - средняя за 10 мин, порывы в срок и между сроками (в фигурных скобках) и направление, откуда дует ветер: С - северный, СВ - северо-восточный, В - восточный, ЮВ - юго-восточный, Ю - южный, ЮЗ - юго-западный, З - западный, СЗ - северо-западный.
Видимость - горизонтальная дальность видимости в метрах или километрах. При видимости от 1 до 10 км при отсутствии осадков обычно наблюдается дымка, при ухудшении видимости до 1 км и менее - туман. В сухую погоду видимость может ухудшаться дымом, пылью или мглою.
Явления - указаны атмосферные явления, наблюдавшиеся в срок или в последний час перед сроком; фигурными скобками обозначены явления, наблюдавшиеся между сроками (за 1-3 часа до срока); квадратными скобками обозначены град или гололедные отложения с указанием их диаметра в мм.
Облачность - указаны через наклонную черту общая и нижняя облачность в баллах и высота нижней границы облаков в метрах; квадратными скобками обозначены формы облаков: Ci - перистые, Cs - перисто-слоистые, Cc - перисто-кучевые, Ac - высококучевые, As - высокослоистые, Sc - слоисто-кучевые, Ns - слоисто-дождевые, Cu - кучевые, Cb - кучево-дождевые. Подробнее классификацию облаков см. в Атласе облаков (PDF).
T - Температура воздуха - температура, измеренная на высоте 2 м над землей.
Td - Температура точки росы - температура, при понижении до которой содержащийся в воздухе водяной пар достигнет насыщения.
f - Относительная влажность воздуха - влажноcть воздуха, измеренная на высоте 2 м над землей.
Te - Эффективная температура - температура, которую ощущает одетый по сезону человек в тени. Характеристика душности погоды. При расчете учитывается влияние влажности воздуха и скорости ветра на теплоощущения человека.
Tes - Эффективная температура на солнце - температура, которую ощущает человек, с поправкой на солнечный нагрев. Характеристика знойности погоды. Зависит от высоты солнца над горизонтом, облачности и скорости ветра. Ночью, в пасмурную погоду, а также при ветре 12 м/с и более поправка равна нулю.
P - Атмосферное давление - приведенное к уровню моря атмосферное давление.
Po - Атмосферное давление - измеренное на уровне метеостанции атмосферное давление.
Tmin - Минимальная температура - минимум температуры воздуха на высоте 2 м над землей.
Tmax - Максимальная температура - максимум температуры воздуха на высоте 2 м над землей.
R - Количество осадков - Количество выпавших осадков за период времени, мм. При наведении курсора мыши на число - период времени, за который выпало указанное количество осадков.
R24 - Количество осадков - Количество выпавших осадков за 24 часа, мм.
S - Снежный покров - Высота снежного покрова, см. При наведении курсора мыши на число - состояние снежного покрова и степень покрытия местности в баллах.